Regional Weather Roundup
Issued by NWS

Home | Current Version | Previous Version | Graphics & Text | Print | Product List | Glossary On
Versions: 1 2 3 4 5 6 7 8 9 10 11 12 13 14 15 16 17 18 19 20 21 22 23 24 25 26 27 28 29 30 31 32 33 34 35 36 37 38 39 40 41 42 43 44 45 46 47 48 49 50
000
ASUS43 KMKX 261900
RWRWI

WISCONSIN REGIONAL WEATHER ROUNDUP
NATIONAL WEATHER SERVICE MILWAUKEE/SULLIVAN WI
200 PM CDT WED APR 26 2017

NOTE: "FAIR" INDICATES FEW OR NO CLOUDS BELOW 12,000 FEET WITH NO
SIGNIFICANT WEATHER AND/OR OBSTRUCTIONS TO VISIBILITY.

WIZ001-002-006>008-014>016-023>028-262000-
NORTHWEST WISCONSIN

CITY           SKY/WX    TMP DP  RH WIND       PRES   REMARKS
SUPERIOR ARPT  LGT RAIN  34  32  93 NE16G29   29.57F WCI  23
ASHLAND        MIX PCPN  33  31  92 NE18G30   29.53R FOG     WCI  22
HAYWARD        MIX PCPN  35  33  92 NE13      29.48R FOG     WCI  26
SIREN          CLOUDY    35  33  92 NE14      29.51S WCI  26
CUMBERLAND     CLOUDY    34  32  93 N12G17    29.47R WCI  25
RICE LAKE      CLOUDY    36  34  92 NW10      29.49R WCI  28
CHETEK         CLOUDY    37  36  96 N7        29.47R WCI  31
LADYSMITH      CLOUDY    37  35  94 NW10      29.45R FOG     WCI  30
EAU CLAIRE     NOT AVBL
MENOMONIE      CLOUDY    38  38 100 NW10      29.48R WCI  32
NEW RICHMOND   CLOUDY    37  35  90 N9        29.50R WCI  31
OSCEOLA        CLOUDY    38  38 100 N9        29.55R WCI  32
$$

WIZ003>005-009-010-017-018-262000-
NORTH CENTRAL WISCONSIN

CITY           SKY/WX    TMP DP  RH WIND       PRES   REMARKS
MANITOWISH WTR LGT RAIN  35  35 100 N12       29.40F WCI  26
ARBOR VITAE    LGT RAIN  39  38  94 N9        29.38F WCI  33
WOODRUFF       LGT RAIN  39  38  94 N9        29.38F WCI  33
RHINELANDER    LGT RAIN  45  45 100 N6        29.38R
EAGLE RIVER    RAIN      40  40 100 N9        29.38F WCI  34
LAND O LAKES   RAIN      37  37 100 N8        29.41S WCI  31
PHILLIPS       CLOUDY    36  36  99 N10       29.41S WCI  28
TOMAHAWK       DRIZZLE   42  41  95 NW6       29.38S
MEDFORD        CLOUDY    47  46  95 N6        29.37R
MERRILL        DRIZZLE   54  54 100 CALM      29.36S
$$

WIZ029-030-035-036-043>047-262000-
CENTRAL WISCONSIN

CITY           SKY/WX    TMP DP  RH WIND       PRES   REMARKS
WAUSAU         CLOUDY    58  57  97 SW7       29.34R
MOSINEE        CLOUDY    57  57 100 SW12G17   29.38R
MARSHFIELD     CLOUDY    50  47  89 W15       29.38R
STEVENS POINT  CLOUDY    59  58  96 SW10      29.37R
WAUPACA        CLOUDY    65  60  85 S14       29.38R
WAUTOMA        CLOUDY    64  59  83 SW16      29.39
WISC RAPIDS    CLOUDY    60  57  89 W9        29.38S
CAMP DOUGLAS   NOT AVBL
$$

WIZ011>013-019>022-031-037>040-048>050-262000-
NORTHEAST WISCONSIN

CITY           SKY/WX    TMP DP  RH WIND       PRES   REMARKS
ANTIGO         DRIZZLE   55  55 100 S9        29.37R
SHAWANO        CLOUDY    63  59  87 S6        29.37R
OCONTO         CLOUDY    55  52  91 S6        29.37S
STURGEON BAY   LGT RAIN  54  52  93 S12       29.40S FOG
GREEN BAY      CLOUDY    60  59  96 SE10      29.38S
MANITOWOC      CLOUDY    55  54  94 S10       29.41S
APPLETON       PTSUNNY   63  61  94 S17       29.37S
CLINTONVILLE   CLOUDY    59  59 100 S10       29.38R
OSHKOSH        CLOUDY    65  58  78 S16G24    29.39R
$$

WIZ032>034-041-042-053>061-262000-
SOUTHWEST WISCONSIN

CITY           SKY/WX    TMP DP  RH WIND       PRES   REMARKS
LA CROSSE      CLOUDY    48  45  89 NW12      29.45R
SPARTA         CLOUDY    48  47  97 W12       29.43R
VIROQUA        CLOUDY    51  51 100 W14       29.43R
BOSCOBEL       CLOUDY    58  52  80 SW10      29.45R
PRAIRIE DU CHI CLOUDY    52  50  91 SW13      29.46R
PLATTEVILLE    CLOUDY    55  54  99 SW15      29.48S
$$

WIZ056-057-062-063-064-067-068-262000-
SOUTH CENTRAL WISCONSIN

CITY           SKY/WX    TMP DP  RH WIND       PRES   REMARKS
REEDSBURG      CLOUDY    63  58  84 SW15      29.40R
BARABOO/DELLS  CLOUDY    62  55  79 SW12G17   29.40R
LONE ROCK      CLOUDY    61  56  83 SW8       29.42R HAZE
MINERAL POINT  CLOUDY    57  55  94 SW12G17   29.45S
MADISON        CLOUDY    63  58  83 SW9       29.42R
MIDDLETON      CLOUDY    65  58  79 SW15      29.43R
WATERTOWN      CLOUDY    63  62  99 SW16      29.44R
MONROE         CLOUDY    63  55  77 SW18G28   29.45S
JANESVILLE     CLOUDY    68  59  73 MISG      29.44S
$$

WIZ051-052-058>065-066-070>072-262000-
SOUTHEAST WISCONSIN

CITY           SKY/WX    TMP DP  RH WIND       PRES   REMARKS
MILWAUKEE      PTSUNNY   71  61  70 SW21G26   29.45S
WAUKESHA       CLOUDY    63  57  82 SW12G20   29.46R
MILWAUKEE/TIMM PTSUNNY   64  55  72 SW13G23   29.45R
RACINE         PTSUNNY   72  57  59 W14G22    29.46S
KENOSHA        PTSUNNY   71  58  63 SW14G23   29.44F
FOND DU LAC    CLOUDY    63  57  81 S14       29.41R
SHEBOYGAN      CLOUDY    64  62  93 S13       29.41S
WEST BEND      CLOUDY    63  61  94 SW12G18   29.43R
JUNEAU         CLOUDY    61  58  91 S13       29.44R
$$

LSZ147-162-262000-
LAKE SUPERIOR

STATION/POSITION TIME  TEMP    WIND        PRES    WAVE
                       AIR SEA DIR/SP/G            HT/PER
                 (UTC) (F)     (DEG/KT/KT) (MB)    (FT/S)
DEVILS ISLAND    1800   32      30/ 30/ 34 1001.8F
PORT WING        1830   33      40/ 26/ 33 1001.0F
SAXON HARBOR     1840   34      50/ 25/ 30  999.3S
$$

LMZ867-665-643>646-262000-
LAKE MICHIGAN

STATION/POSITION TIME  TEMP    WIND        PRES    WAVE
                       AIR SEA DIR/SP/G            HT/PER
                 (UTC) (F)     (DEG/KT/KT) (MB)    (FT/S)
CHAMBERS ISLAND  1840   54     140/  7/ 17  994.9S
N MID LAKE BUOY  1750   42 37   70/  6/  8  996.8F   2/ 5
NORTHPORT PIER   1840   47     140/  9/ 12  995.6F
KEWAUNEE LAKESHO 1830   47     180/ 12/ 13  995.7F
SHEBOYGAN LAKESH 1800   46     180/ 17/ 17  996.3R
PORT WASHINGTON  1830   53     200/  7/  9  997.3F
MILWAUKEE LAKESH 1830   65     210/ 14/ 17   N/A
S MID LAKE BUOY  1750   49 41  170/ 10/ 14  997.6R   2/ 4
KENOSHA   LAKESH 1800   68     240/ 13/ 19  997.6
$$

TC  - TEMPERATURE IN CELSIUS
VSB - VISIBILITY IN STATUTE MILES
WCI - WIND CHILL INDEX
HX  - HEAT INDEX





USA.gov is the U.S. government's official web portal to all federal, state and local government web resources and services.